Location: ??
(35.4627°N, 139.3695°E)
Time: 06:03:40
(UTC+00:00)

Lacrosse 4 Rocket - Pass Details

Date: 25 November 2020
Orbit: 537 x 620 km, 68.0° (Epoch: 20 January)

Event Time Altitude Azimuth Distance (km) Brightness Sun altitude
Exits shadow 19:21:01 - 11° (N) 2,091 4.3 -25.6°
Reaches altitude 10° 19:21:43 10° 18° (NNE) 1,925 4.2 -25.5°
Maximum altitude 19:24:13 15° 54° (NE) 1,637 4.2 -25.0°
Drops below altitude 10° 19:26:44 10° 89° (E) 1,946 5.1 -24.5°
Sets 19:29:53 0° 113° (ESE) 2,860 6.3 -23.8°
